Location: York
(31.8935°S, 116.7682°E)
Time: 16:36:21
(UTC+08:00)

Vanguard 3 - All Passes

Search period start: 25 September 2022 00:00
Search period end: 05 October 2022 00:00
Orbit: 508 x 3258 km, 33.3° (Epoch: 24 September)

Date Brightness Start Highest point End Pass type
(mag) Time Alt. Az. Time Alt. Az. Time Alt. Az.
25 Sep - 01:13:56 10° W 01:25:25 81° S 01:31:39 10° E night (unlit)
25 Sep - 03:30:23 10° W 03:37:37 57° NNW 03:42:01 10° NE visible
25 Sep - 17:19:56 10° NNE 17:24:29 11° NE 17:28:54 10° ENE daylight
25 Sep - 19:23:13 10° NNW 19:39:58 36° NNE 19:52:41 10° E visible
25 Sep - 21:37:25 10° WNW 21:55:21 69° NNE 22:06:07 10° ESE visible
25 Sep - 23:55:25 10° W 00:09:50 84° S 00:17:36 10° E visible
26 Sep - 02:13:12 10° W 02:23:00 85° NNW 02:28:27 10° ENE visible
26 Sep - 04:29:16 10° W 04:34:06 24° NW 04:37:38 10° NNE visible
26 Sep - 18:08:41 10° N 18:22:53 25° NE 18:35:14 10° E visible
26 Sep - 20:19:53 10° NW 20:38:27 55° NNE 20:51:05 10° E visible
26 Sep - 22:36:36 10° WNW 22:53:41 87° NNE 23:03:20 10° E visible
27 Sep - 00:55:10 10° W 01:07:47 83° S 01:14:33 10° E visible
27 Sep - 03:12:08 10° W 03:20:04 51° NNW 03:24:50 10° NE visible
27 Sep - 16:57:22 10° NNE 17:05:54 14° NE 17:14:10 10° ENE daylight
27 Sep - 19:03:32 10° NNW 19:21:16 42° NNE 19:35:12 10° E visible
27 Sep - 21:18:07 10° WNW 21:36:59 74° NNE 21:48:42 10° ESE visible
27 Sep - 23:36:26 10° W 23:51:58 83° S 00:00:25 10° E visible
28 Sep - 01:54:35 10° WSW 02:05:26 79° NNW 02:11:20 10° ENE night (unlit)
28 Sep - 04:11:24 10° W 04:16:28 22° NW 04:20:06 10° N visible
28 Sep - 17:48:46 10° NNW 18:04:06 29° NE 18:17:53 10° E daylight
28 Sep - 20:00:30 10° NW 20:19:48 61° NNE 20:33:31 10° ESE visible
28 Sep - 22:17:29 10° WNW 22:35:31 90° NNE 22:46:00 10° E visible
29 Sep - 00:36:19 10° W 00:50:04 86° S 00:57:26 10° E visible
29 Sep - 02:53:45 10° W 03:02:27 47° NNW 03:07:34 10° NE visible
29 Sep - 16:36:31 10° N 16:47:11 17° NE 16:57:44 10° ENE daylight
29 Sep - 18:44:06 10° NNW 19:02:26 47° NNE 19:17:31 10° E visible
29 Sep - 20:58:55 10° WNW 21:18:29 79° NNE 21:31:10 10° ESE visible
29 Sep - 23:17:25 10° W 23:34:00 83° S 23:43:11 10° E visible
30 Sep - 01:35:52 10° WSW 01:47:45 74° NNW 01:54:09 10° ENE night (unlit)
30 Sep - 03:53:27 10° W 03:58:42 20° NW 04:02:31 10° N visible
30 Sep - 17:29:11 10° NNW 17:45:11 33° NE 18:00:14 10° E daylight
30 Sep - 19:41:17 10° NW 20:01:02 66° NNE 20:15:48 10° ESE visible
30 Sep - 21:58:23 10° W 22:17:14 88° S 22:28:36 10° E visible
01 Oct - 00:17:22 10° W 00:32:14 89° SSE 00:40:15 10° ENE visible
01 Oct - 02:35:14 10° W 02:44:42 43° NW 02:50:16 10° NE night (unlit)
01 Oct - 16:16:25 10° N 16:28:19 20° NE 16:40:35 10° E daylight
01 Oct - 18:24:53 10° NW 18:43:28 51° NNE 18:59:40 10° ESE visible
01 Oct - 20:39:50 10° WNW 20:59:53 83° NNE 21:13:34 10° ESE visible
01 Oct - 22:58:23 10° W 23:15:55 84° S 23:25:54 10° E visible
02 Oct - 01:17:01 10° WSW 01:29:57 69° NNW 01:36:56 10° ENE visible
02 Oct - 03:35:25 10° W 03:40:52 19° NW 03:44:50 10° N night (unlit)
02 Oct - 17:09:55 10° NNW 17:26:09 37° NE 17:42:20 10° E daylight
02 Oct - 19:22:15 10° NW 19:42:10 71° NNE 19:57:59 10° ESE visible
02 Oct - 21:39:21 10° W 21:58:51 86° S 22:11:07 10° E visible
02 Oct - 23:58:21 10° W 00:14:17 87° NNW 00:23:00 10° ENE visible
03 Oct - 02:16:37 10° W 02:26:50 40° NW 02:32:52 10° NNE night (unlit)
03 Oct - 15:56:50 10° N 16:09:23 23° NE 16:22:57 10° E daylight
03 Oct - 18:05:53 10° NW 18:24:25 56° NNE 18:41:38 10° ESE visible
03 Oct - 20:20:52 10° WNW 20:41:12 86° NNE 20:55:51 10° ESE visible
03 Oct - 22:39:20 10° W 22:57:44 85° S 23:08:32 10° E visible
04 Oct - 00:58:04 10° WSW 01:12:01 65° NNW 01:19:39 10° NE visible
04 Oct - 03:17:21 10° W 03:22:54 17° NW 03:27:03 10° N night (unlit)
04 Oct - 14:48:53 10° NE 14:53:10 11° NE 14:57:40 10° ENE daylight
04 Oct - 16:50:55 10° NNW 17:07:04 41° NE 17:24:12 10° E daylight
04 Oct - 19:03:23 10° WNW 19:23:13 75° NNE 19:40:02 10° ESE visible
04 Oct - 21:20:23 10° W 21:40:23 85° S 21:53:34 10° E visible
